Hagerstown, MD

5:52 PM EDT on March 25, 2017 (GMT -0400)
Hagerstown Regional-Henson

Weather History for KHGR - December, 2012

Change the Weather History Date:

Tuesday, December 4, 2012

  Actual Average Record
Temperature  
Mean Temperature 61 °F 38 °F  
Max Temperature 70 °F 45 °F 70 °F (1998)
Min Temperature 51 °F 30 °F 14 °F (2002)
Degree Days  
Heating Degree Days 4 27  
Month to date heating degree days 60 107  
Since 1 July heating degree days 1090 1112  
Cooling Degree Days 0 0  
Month to date cooling degree days 0 0  
Year to date cooling degree days 1276 969  
Growing Degree Days 11 (Base 50)    
Moisture  
Dew Point 51 °F    
Average Humidity 74    
Maximum Humidity 96    
Minimum Humidity 51    
Precipitation  
Precipitation 0.00 in 0.11 in 0.13 in (2005)
Month to date precipitation T 0.45  
Year to date precipitation 35.08 36.85  
Sea Level Pressure  
Sea Level Pressure 30.15 in    
Wind  
Wind Speed 5 mph (South)    
Max Wind Speed 13 mph    
Max Gust Speed 16 mph    
Visibility 10 miles    
Events      
T = Trace of Precipitation, MM = Missing Value Source: NWS Daily Summary

Daily Weather History Graph

Daily Weather History Graph

Search for Another Location

Airport or City:

Trip Planner

Search our weather history database for the weather conditions in past years. The results will help you decide how hot, cold, wet, or windy it might be!

Date:

Astronomy

Dec. 04, 2012 Rise Set
Actual Time 7:16 AM EST 4:46 PM EST
Civil Twilight 6:46 AM EST 5:16 PM EST
Nautical Twilight 6:12 AM EST 5:50 PM EST
Astronomical Twilight 5:39 AM EST 6:22 PM EST
Moon 10:31 PM EST (12/4) 11:09 AM EST (12/4)
Length of Visible Light 10h 30m
Length of Day
9h 30m
Waning Gibbous, 69% of the Moon is Illuminated
Dec 4
Waning Gibbous
Dec 6
Last Quarter
Dec 13
New
Dec 20
First Quarter
Dec 28
Full

Hourly Weather History & Observations

Time (EST) Temp. Dew Point Humidity Pressure Visibility Wind Dir Wind Speed Gust Speed Precip Events Conditions
1:53 AM 57.0 °F 51.1 °F 81% 30.23 in 10.0 mi South 4.6 mph - N/A   Overcast
2:53 AM 57.0 °F 51.1 °F 81% 30.23 in 10.0 mi South 3.5 mph - N/A   Mostly Cloudy
3:53 AM 55.0 °F 51.1 °F 86% 30.22 in 10.0 mi South 4.6 mph - N/A   Overcast
4:53 AM 53.1 °F 50.0 °F 89% 30.23 in 10.0 mi Calm Calm - N/A   Overcast
5:53 AM 52.0 °F 48.9 °F 89% 30.23 in 10.0 mi South 4.6 mph - N/A   Partly Cloudy
6:53 AM 53.1 °F 51.1 °F 93% 30.24 in 9.0 mi SE 3.5 mph - N/A   Overcast
7:53 AM 52.0 °F 50.0 °F 93% 30.25 in 7.0 mi SSW 4.6 mph - N/A   Mostly Cloudy
8:53 AM 54.0 °F 51.1 °F 90% 30.24 in 7.0 mi South 4.6 mph - N/A   Partly Cloudy
9:53 AM 59.0 °F 52.0 °F 78% 30.24 in 10.0 mi South 5.8 mph - N/A   Clear
10:53 AM 61.0 °F 52.0 °F 72% 30.23 in 10.0 mi SSW 6.9 mph - N/A   Clear
11:53 AM 64.9 °F 52.0 °F 63% 30.19 in 10.0 mi South 5.8 mph - N/A   Clear
12:53 PM 68.0 °F 51.1 °F 55% 30.15 in 10.0 mi South 6.9 mph - N/A   Clear
1:53 PM 70.0 °F 50.0 °F 49% 30.11 in 10.0 mi South 8.1 mph - N/A   Clear
2:53 PM 68.0 °F 51.1 °F 55% 30.09 in 10.0 mi South 8.1 mph - N/A   Clear
3:53 PM 66.9 °F 53.1 °F 61% 30.10 in 10.0 mi SSE 9.2 mph - N/A   Clear
4:53 PM 64.9 °F 52.0 °F 63% 30.08 in 10.0 mi SSE 9.2 mph - N/A   Partly Cloudy
5:53 PM 64.0 °F 52.0 °F 65% 30.08 in 10.0 mi SSE 9.2 mph - N/A   Mostly Cloudy
6:53 PM 64.0 °F 51.1 °F 63% 30.06 in 10.0 mi South 11.5 mph - N/A   Overcast
7:53 PM 64.0 °F 50.0 °F 60% 30.06 in 10.0 mi South 11.5 mph - N/A   Overcast
8:53 PM 64.0 °F 51.1 °F 63% 30.05 in 10.0 mi SSW 6.9 mph - N/A   Overcast
9:53 PM 63.0 °F 50.0 °F 63% 30.02 in 10.0 mi South 11.5 mph - N/A   Mostly Cloudy
10:53 PM 63.0 °F 50.0 °F 63% 30.01 in 10.0 mi South 10.4 mph - N/A   Overcast
11:53 PM 63.0 °F 48.9 °F 60% 30.00 in 10.0 mi SW 8.1 mph - N/A   Overcast